1998-067SR (49272 NORAD) Tracking and Keplerian Element Data

This shows tracking and keplerian element data for the satellite.

Feedback or suggestion? Click here.




ElementValue
Catalog49272
Name1998-067SR
Epoch Orbit141
Epoch Day287.90367179
Epoch Year2021
RAAN110.7116
Inclination51.6415
Eccentricity0.0005595
Argument of Perigee127.5969
Mean Anonmoly232.5529
Mean Motion15.5002214
Decay Rate0.00014592
L11 49272U 98067SR 21287.90367179 .00014592 00000-0 26290-3 0 9999
L22 49272 51.6415 110.7116 0005595 127.5969 232.5529 15.50022140 1412

Live tracking and technical data element details for 1998-067SR (NORAD 49272). 1998-067SR can be tracked NOW for your location showing map with azimuth and elevation plus other details from your city location.

Track the satellite on the map from your city or location and see movement details for azimuth, elevation, latitude, longitude, range, height, and movement on the map or in text.







IsCatalogInMostPopularTable: catalog: 49272, numindb: 5
Update: records affected: 1



GetName: 49272 1998-067SR

Hit Count: updated at: Tue, 19 Oct 2021 07:50:19 GMT